Temperature
16 16 16 16 16 16 16 16 15 15 15 15 15 15 15 15 15 15 15 15 15 15 15 15 15 14 14 14 14 14 14 14 14 14 14 14 14 14
16 16 15 16 15 15 15 15 15 15 15 15 15 15 15 15 15 15 15 15 15 15 15 14 14 14 14 14 14 14 14 14 14 14 14 14 14 14
15 15 15 15 15 15 15 15 15 15 15 15 15 15 15 15 15 15 15 15 14 14 14 14 14 14 14 14 14 14 14 14 13 13 13 13 13 13
15 15 15 15 15 15 15 15 15 14 14 14 15 15 15 15 14 14 14 14 14 14 14 14 14 14 14 13 14 13 13 13 13 13 13 13 13 13
14 14 14 14 14 14 14 14 14 14 14 14 14 14 14 14 14 14 14 14 14 14 14 14 14 13 13 13 13 13 13 13 13 13 13 13 13 13
14 14 14 14 14 14 14 14 14 14 14 14 14 14 14 14 14 14 14 14 14 14 14 13 13 13 13 13 13 13 13 13 13 13 12 12 13 13
14 14 14 14 13 13 13 13 13 13 13 13 13 13 13 13 13 13 13 13 13 13 13 13 13 13 13 13 12 12 12 12 12 12 12 12 12 12
14 13 13 13 13 13 13 13 13 13 13 13 13 13 13 13 13 13 13 13 13 13 13 13 12 12 12 12 12 12 12 12 12 12 12 12 12 12
13 13 13 13 13 13 13 13 13 13 13 13 13 13 13 13 13 12 12 12 12 12 12 12 12 12 12 12 12 12 12 12 11 11 12 12 12 12
13 13 13 13 13 12 12 12 12 12 12 12 12 12 12 12 12 12 12 12 12 12 12 12 12 12 12 12 12 11 11 11 11 11 11 11 11 11
13 12 12 12 12 12 12 12 12 12 12 12 12 12 12 12 12 12 12 12 12 12 12 11 12 12 12 12 11 11 11 11 11 11 11 11 11 11
12 12 12 12 12 12 12 12 12 12 12 12 12 12 12 12 12 12 12 11 11 11 11 11 11 11 11 11 11 11 11 11 11 11 11 11 11 11
12 12 12 12 12 11 11 11 11 11 11 11 12 12 12 12 11 11 11 11 11 11 11 11 11 11 11 11 11 11 11 11 11 11 11 11 11 11
11 11 11 11 11 11 11 11 11 11 11 11 11 11 11 11 11 11 11 11 11 11 11 11 11 10 10 10 10 10 10 10 10 10 10 10 10 10
11 11 11 11 11 11 11 11 11 11 11 11 11 11 11 11 11 11 11 11 11 10 10 10 10 10 10 10 10 10 10 10 10 10 10 10 10 10
11 11 11 11 11 11 11 10 10 10 10 10 10 10 10 10 10 10 10 10 10 10 10 10 10 10 10 10 10 10 10 10 10 10 10 10 10 10
11 10 10 11 11 10 10 10 10 10 10 10 10 10 10 10 10 10 10 10 10 10 10 10 10 10 10 10 10 10 9 9 9 10 10 9 9 9
10 10 10 10 10 10 10 10 10 9 10 10 10 10 10 10 10 9 9 9 9 9 9 9 9 9 9 9 9 9 9 9 9 9 9 9 9 9
10 10 10 10 9 9 9 9 9 9 9 9 9 9 9 9 9 9 9 9 9 9 9 9 9 9 9 9 9 9 9 9 9 9 9 9 9 9
10 9 9 9 9 9 9 9 9 9 9 9 9 9 9 9 9 9 9 9 9 9 9 9 9 9 9 9 8 9 9 9 9 9 9 9 9 9
9 9 9 9 9 9 9 9 9 9 9 8 8 9 9 9 9 9 9 9 9 8 8 8 9 9 9 8 8 8 9 9 9 8 8 8 8 8
9 9 9 9 9 9 9 9 8 8 8 8 8 8 8 8 8 9 9 9 9 8 8 8 8 8 8 8 8 8 8 8 8 8 8 8 8 8
9 9 9 9 8 8 8 8 8 8 8 8 8 8 8 8 8 8 8 8 8 8 8 8 8 8 8 8 8 8 8 8 8 8 8 8 8 8
Wind_Speed
1 1 2 2 2 2 2 3 3 4 4 4 3 3 4 4 5 5 5 5 6 5 5 4 5 5 4 4 4 5 6 6 6 6 7 7 6 5
1 1 2 2 2 1 2 2 3 3 4 3 3 3 3 4 4 4 5 5 6 6 5 5 5 4 4 4 5 4 6 6 5 5 6 7 7 6
2 1 2 2 2 2 2 2 2 3 5 4 3 3 3 3 3 3 3 3 4 6 6 6 5 4 4 4 4 4 4 4 5 5 5 5 6 6
2 2 3 2 2 3 2 3 3 3 3 5 3 3 3 3 2 2 2 2 3 5 5 5 4 4 4 4 4 3 3 3 3 3 3 4 5 6
3 3 3 3 3 3 3 3 3 3 3 3 4 2 2 2 1 2 2 2 3 3 4 3 3 3 3 3 3 3 3 3 3 3 3 4 4 5
3 3 3 4 4 4 3 3 3 2 2 2 3 3 2 2 1 2 2 2 3 2 1 2 2 3 3 3 4 4 3 3 3 3 3 3 4 4
3 3 4 4 4 4 3 3 2 2 2 2 3 3 3 2 2 2 3 2 2 1 1 1 1 1 2 4 4 3 3 4 4 4 3 3 3 4
3 4 4 4 4 4 5 4 3 3 3 3 3 3 4 4 3 3 2 2 2 1 2 3 2 2 2 3 4 4 3 3 3 4 3 3 3 3
3 3 3 3 4 3 4 4 4 5 5 4 4 5 4 4 3 3 3 3 3 1 2 3 2 3 2 3 3 4 4 3 3 3 3 3 3 3
3 3 3 4 3 3 3 3 4 4 4 4 5 5 5 4 4 4 4 3 2 1 2 2 2 2 2 2 3 4 4 3 3 3 3 3 3 3
3 3 3 4 5 3 2 3 4 4 4 3 3 4 4 3 3 2 1 1 1 2 1 1 1 2 2 2 1 3 4 3 3 3 3 3 3 4
3 4 4 4 5 4 3 3 4 5 4 3 3 3 2 2 2 3 3 2 1 2 2 2 1 1 1 1 1 1 2 3 3 3 3 3 3 3
3 4 4 5 5 4 4 4 6 5 3 3 2 2 2 2 2 2 2 3 3 3 2 2 2 1 1 1 1 1 0 0 1 2 2 3 3 4
3 4 4 5 5 5 4 5 4 3 2 2 2 2 2 3 3 2 2 3 3 3 3 3 2 2 1 1 1 1 0 0 0 0 0 1 2 3
3 4 5 5 5 4 4 4 2 1 1 2 3 3 3 3 2 2 1 0 1 1 1 2 2 2 2 1 1 0 0 1 0 0 0 1 1 1
3 4 4 3 3 3 3 2 1 1 2 3 3 3 2 2 2 1 1 0 0 1 1 0 2 3 2 2 2 1 1 1 0 0 0 1 0 1
2 2 2 3 3 3 2 2 2 1 2 2 2 2 2 2 2 1 1 1 1 0 1 1 1 1 1 2 2 2 1 1 1 1 1 0 0 1
1 1 2 3 3 3 3 3 3 3 3 3 2 2 2 2 2 1 1 1 1 1 1 0 1 2 1 1 1 2 1 1 1 1 1 1 1 1
1 2 3 3 3 3 3 3 3 3 3 2 2 2 2 2 2 2 2 1 1 1 1 1 1 2 2 2 1 1 2 1 1 1 1 1 1 1
1 2 3 3 3 3 3 3 3 3 2 2 3 3 2 2 2 2 2 2 2 2 1 1 2 2 3 3 2 1 2 2 2 2 1 1 0 0
3 3 3 4 4 3 3 3 3 3 2 2 3 3 2 2 2 2 2 3 3 2 3 3 3 2 1 1 1 0 1 0 1 2 2 1 0 0
3 3 3 4 3 3 3 3 3 3 3 3 3 3 2 2 3 3 3 3 3 3 3 2 1 2 2 2 2 1 0 1 2 3 2 1 1 2
3 3 3 3 3 3 3 3 3 3 3 3 3 3 3 3 3 2 3 3 3 2 2 1 1 1 1 2 2 2 1 1 1 2 2 3 0 1
Wind_Direction
265 266 268 272 260 248 234 217 221 267 275 262 258 264 264 255 261 251 248 247 243 242 246 245 241 241 237 239 239 234 231 236 242 242 234 228 230 239
250 264 283 278 283 269 242 239 229 234 261 260 253 277 279 271 266 251 248 253 245 241 239 239 238 233 235 237 233 233 226 227 234 239 233 225 225 239
279 266 279 275 269 273 257 247 245 239 255 275 267 283 275 278 295 277 256 250 256 248 237 233 236 235 237 240 236 233 233 232 233 234 233 230 224 238
272 269 277 278 272 269 258 255 253 245 243 267 280 283 274 278 281 270 272 262 257 251 236 228 231 233 235 235 228 225 228 232 237 238 234 238 236 234
262 261 269 268 274 272 261 259 262 260 249 252 270 277 277 294 304 289 285 286 260 246 232 230 227 212 214 222 216 208 222 229 237 251 255 250 249 247
266 265 268 256 253 258 261 259 258 264 262 258 269 282 282 294 279 280 286 278 270 259 260 246 225 205 205 209 209 199 202 213 220 233 256 265 260 256
283 283 275 269 265 263 269 261 250 256 263 266 272 281 275 275 264 256 253 271 265 255 253 255 237 223 225 222 214 209 206 207 212 218 228 251 260 257
281 293 293 288 287 282 277 270 252 240 246 247 260 264 268 263 259 251 241 244 255 237 227 244 223 237 241 223 217 210 206 210 219 229 232 235 246 255
278 287 297 308 316 300 298 297 281 267 242 237 242 255 259 254 244 241 237 239 246 253 215 236 232 245 253 236 210 204 205 209 214 220 223 228 235 243
275 268 271 286 287 289 292 300 294 287 273 254 242 253 257 244 228 231 226 230 262 243 208 229 239 253 260 256 221 212 210 204 206 207 220 235 231 227
290 282 274 279 286 287 288 286 293 295 299 301 287 279 275 254 213 190 184 193 254 254 220 221 237 261 261 263 255 228 218 210 214 216 227 231 230 218
302 298 287 284 288 282 267 261 272 281 294 310 317 320 308 282 217 210 202 209 223 236 212 203 213 225 264 256 288 292 238 223 217 223 231 226 212 199
290 294 292 295 289 271 260 257 258 268 274 272 287 307 314 303 279 239 217 210 215 234 209 187 195 194 213 263 287 294 281 251 226 245 234 223 200 187
272 279 285 293 295 283 271 269 273 276 271 270 275 275 280 289 294 280 246 231 232 236 206 184 186 188 183 204 259 317 327 356 37 309 292 189 184 180
279 284 293 299 303 297 288 289 288 275 258 262 267 272 273 280 291 295 291 247 268 275 218 199 189 183 179 197 209 229 289 306 286 323 44 114 130 140
308 312 313 319 326 329 333 333 322 260 250 256 264 274 286 288 283 271 258 253 9 349 7 285 195 178 179 191 193 211 211 204 235 256 83 74 114 182
311 336 344 344 342 339 332 332 326 311 287 276 264 271 275 272 280 274 214 170 172 241 4 32 57 107 150 167 191 203 202 223 218 186 154 90 306 227
19 328 312 307 300 301 305 308 307 303 299 291 275 260 258 264 262 236 183 177 189 225 236 147 115 100 84 31 230 203 205 221 199 167 168 174 270 261
27 304 299 296 294 295 294 287 283 284 284 287 286 284 275 265 247 225 198 191 209 223 229 191 180 172 190 249 302 223 211 212 186 178 188 200 227 244
301 290 292 295 294 294 291 285 286 294 298 296 291 289 288 275 254 233 212 208 210 208 213 210 216 209 211 221 224 293 242 206 200 194 196 219 299 18
297 293 292 293 292 292 293 289 290 294 301 296 286 282 276 271 255 238 223 208 206 206 217 234 244 224 183 136 152 235 331 242 212 212 197 186 189 144
295 293 293 296 298 298 300 300 300 300 303 295 294 289 282 270 260 241 222 214 213 213 220 228 171 157 164 182 199 204 171 50 56 58 68 165 191 195
295 293 294 300 303 305 304 302 300 296 295 293 291 290 284 275 270 248 227 219 213 203 194 183 162 166 183 192 193 186 157 89 54 43 22 24 66 196
Height
1501 1500 1500 1499 1499 1499 1498 1498 1498 1495 1493 1493 1493 1492 1492 1492 1491 1491 1490 1490 1489 1489 1489 1489 1488 1488 1488 1488 1487 1487 1488 1488 1488 1488 1489 1489 1490 1491
1498 1497 1497 1496 1496 1496 1495 1495 1494 1493 1490 1489 1489 1489 1489 1488 1488 1487 1487 1486 1486 1485 1485 1485 1485 1485 1485 1484 1484 1484 1484 1484 1485 1485 1485 1486 1486 1487
1495 1494 1493 1493 1492 1492 1491 1491 1491 1490 1488 1486 1486 1486 1485 1485 1484 1483 1483 1482 1482 1482 1482 1481 1481 1481 1481 1481 1481 1481 1481 1481 1481 1481 1482 1482 1482 1483
1492 1491 1490 1490 1489 1488 1488 1487 1487 1486 1485 1483 1482 1482 1482 1481 1480 1479 1479 1478 1478 1478 1478 1478 1478 1478 1478 1478 1477 1477 1477 1478 1478 1477 1478 1478 1479 1479
1489 1489 1488 1487 1486 1485 1484 1484 1483 1483 1482 1480 1479 1478 1478 1477 1476 1476 1475 1475 1474 1474 1474 1474 1474 1474 1474 1474 1474 1473 1474 1474 1474 1474 1474 1474 1475 1475
1487 1486 1485 1484 1483 1482 1481 1480 1480 1479 1478 1477 1476 1475 1474 1473 1473 1472 1471 1471 1471 1470 1470 1470 1470 1470 1470 1470 1470 1470 1470 1470 1470 1471 1471 1471 1471 1472
1484 1483 1482 1481 1480 1479 1478 1477 1476 1476 1475 1474 1472 1471 1470 1470 1469 1468 1467 1467 1467 1466 1466 1467 1467 1466 1466 1466 1466 1466 1466 1466 1467 1467 1467 1468 1468 1468
1480 1479 1478 1477 1477 1476 1475 1474 1473 1472 1471 1470 1469 1468 1467 1467 1466 1465 1464 1464 1463 1464 1463 1463 1463 1463 1463 1463 1463 1463 1463 1463 1463 1464 1464 1464 1465 1465
1476 1475 1474 1474 1473 1472 1471 1470 1469 1468 1468 1467 1466 1464 1464 1463 1462 1462 1461 1460 1460 1460 1460 1460 1460 1460 1460 1460 1460 1460 1460 1460 1460 1461 1461 1461 1461 1462
1473 1472 1471 1470 1468 1467 1467 1466 1465 1464 1463 1463 1462 1461 1461 1460 1459 1458 1457 1457 1457 1457 1457 1456 1457 1457 1457 1457 1458 1458 1458 1458 1458 1458 1458 1458 1459 1459
1469 1468 1467 1466 1465 1464 1463 1461 1460 1460 1459 1459 1458 1458 1457 1456 1456 1455 1454 1453 1452 1453 1453 1453 1454 1454 1454 1454 1455 1455 1456 1455 1455 1455 1455 1456 1456 1457
1465 1464 1463 1462 1461 1459 1458 1457 1456 1455 1455 1455 1454 1454 1453 1453 1452 1451 1451 1450 1450 1450 1450 1450 1450 1451 1451 1452 1452 1453 1453 1453 1453 1453 1453 1453 1454 1454
1461 1460 1459 1458 1457 1456 1455 1454 1453 1452 1452 1451 1450 1450 1449 1449 1448 1448 1447 1447 1447 1446 1447 1447 1447 1448 1449 1449 1450 1450 1451 1451 1451 1451 1451 1451 1451 1452
1458 1457 1456 1455 1454 1453 1451 1450 1450 1449 1448 1448 1447 1446 1446 1445 1445 1445 1444 1444 1444 1444 1444 1444 1444 1445 1446 1446 1447 1448 1449 1449 1449 1449 1449 1449 1449 1450
1456 1454 1453 1452 1451 1450 1448 1447 1446 1445 1444 1444 1444 1443 1443 1442 1442 1442 1441 1441 1441 1441 1441 1441 1442 1442 1443 1444 1445 1446 1446 1447 1447 1447 1447 1447 1447 1448
1453 1451 1450 1449 1448 1446 1445 1444 1443 1442 1442 1441 1441 1440 1440 1439 1439 1439 1438 1438 1437 1438 1438 1439 1439 1440 1441 1442 1443 1444 1444 1445 1445 1446 1445 1446 1446 1446
1450 1448 1447 1446 1444 1443 1442 1441 1440 1440 1439 1438 1437 1437 1436 1436 1436 1436 1435 1435 1435 1435 1435 1436 1437 1438 1439 1440 1441 1442 1443 1443 1444 1444 1444 1444 1444 1445
1447 1445 1444 1442 1441 1440 1439 1438 1437 1437 1436 1435 1434 1434 1433 1433 1433 1433 1433 1433 1433 1433 1434 1434 1435 1436 1437 1438 1439 1440 1440 1441 1442 1442 1442 1442 1443 1444
1445 1443 1441 1440 1439 1438 1436 1435 1434 1434 1433 1432 1431 1431 1430 1430 1430 1430 1430 1431 1431 1431 1432 1433 1433 1434 1434 1435 1437 1438 1439 1439 1439 1440 1440 1441 1441 1442
1442 1441 1439 1438 1437 1435 1434 1433 1432 1431 1430 1430 1429 1429 1428 1427 1427 1428 1428 1428 1429 1429 1430 1430 1431 1432 1432 1434 1434 1436 1437 1437 1437 1438 1439 1439 1440 1440
1440 1439 1437 1436 1435 1433 1432 1431 1429 1428 1427 1427 1426 1426 1426 1425 1425 1425 1426 1426 1426 1427 1427 1428 1429 1430 1431 1432 1433 1433 1434 1435 1436 1436 1436 1437 1437 1438
1438 1437 1435 1434 1433 1431 1430 1429 1427 1426 1425 1424 1424 1424 1423 1423 1423 1423 1423 1423 1424 1424 1425 1426 1427 1428 1428 1429 1429 1431 1432 1433 1434 1434 1435 1435 1435 1436
1437 1435 1434 1432 1431 1430 1428 1427 1425 1424 1423 1422 1422 1421 1421 1421 1421 1421 1421 1421 1422 1422 1423 1424 1425 1426 1426 1427 1427 1428 1429 1430 1431 1432 1433 1434 1435 1435